Weather in Victoria Falls

Zimbabwe     17°55′49″S   25°49′59″E
temp.,
°C
wind,
m/s
gust,
m/s
humid.,
%
clouds,
%
prec.,
mm/h
press.,
hPa
HPBL,
m
8 march, mon
mon823:00+19nnw018093 0.0 101323
02:00+18ssw118590 0.0 101223
05:00+16s119124 0.0 101223
08:00+20se237921 0.0 1013204
11:00+27ene245162 0.0 10121160
14:00+29e363562 0.0 10092232
17:00+27ese355440 0.0 10071565
20:00+20n117021 0.0 101023
9 march, tue
tue923:00+18n11750 0.0 101223
02:00+17n00830 0.0 101123
05:00+17nw12840 0.0 101224
08:00+20n12764 0.0 1014202
11:00+28ne22524 0.0 10131002
14:00+30e24402 0.0 10102260
17:00+28ese34528 0.0 10081657
20:00+21e126723 0.0 101023
10 march, wed
wed1023:00+19nnw117026 0.0 101223
02:00+18nnw117428 0.0 101123
05:00+16nw11800 0.0 101223
08:00+21w11720 0.0 1013146
11:00+31nw11490 0.0 1013934
14:00+31ese243712 0.0 10092518
17:00+29ese245164 0.0 1008715
20:00+21nne126961 0.0 101023
11 march, thu
thu1123:00+20wsw127246 0.0 101123
02:00+19wsw117423 0.0 101123
05:00+18wnw11790 0.0 101123
08:00+22w12710 0.0 1012142
11:00+32n11450 0.0 1011978
14:00+33ese24310 0.0 10093015
17:00+29ese364642 0.0 1007799
20:00+21ese016624 0.0 100923
12 march, fri
fri1223:00+20w11680 0.0 101123
02:00+19sse11717 0.0 101123
05:00+18w11760 0.0 101123
08:00+22ene01690 0.0 1012128
11:00+30e24420 0.0 10111180
14:00+31ese57320 0.0 10092428
17:00+28ese36440 0.0 10071402
20:00+20ese12480 0.0 101023